Regional Weather Roundup
Issued by NWS State College, PA

Home | Current Version | Previous Version | Graphics & Text | Print | Product List | Glossary Off
Versions: 1 2 3 4 5 6 7 8 9 10 11 12 13 14 15 16 17 18 19 20 21 22 23 24 25 26 27 28 29 30 31 32 33 34 35 36 37 38 39 40 41 42 43 44 45 46 47 48 49 50

000
ASUS41 KCTP 082310
RWRCTP

REGIONAL WEATHER ROUNDUP
NATIONAL WEATHER SERVICE STATE COLLEGE PA
600 PM EST MON FEB 08 2016

Note: "fair" indicates few or no clouds below 12,000 feet with no
significant weather and/or obstructions to visibility.

* = STATION THAT DOES NOT REPORT PRECIPITATION /E.G. RAIN...SNOW...ETC/
    THUNDER OR FOG.

PAZ002>004-007>009-013>016-020>023-029>032-090000-
WESTERN PENNSYLVANIA

CITY           SKY/WX    TMP DP  RH WIND       PRES   REMARKS
ERIE           LGT RAIN  36  32  85 W6        29.57R FOG
MEADVILLE      LGT SNOW  35  30  82 S8        29.54S
FRANKLIN*      CLOUDY    34  28  80 S9        29.57S
NEW CASTLE     LGT RAIN  35  33  92 SW6       29.58R
BEAVER COUNTY  FLURRIES  34  32  93 SW8       29.57R
BUTLER*        CLOUDY    36  30  80 SW7       29.61R
PITTSBURGH INT CLOUDY    34  31  88 SW9       29.58R
PITTSBURGH     CLOUDY    39  32  76 S10       29.57S
INDIANA*       FOG       34  34 100 SW10G16   29.62R VSB 3/4
LATROBE        CLOUDY    36  36 100 CALM      29.61R
WASHINGTON CO* MOCLDY    36  30  80 SW10G16   29.59S
$$

PAZ004>006-010>012-017>019-024>028-033>037-041-042-045-046-049>053-090000-
CENTRAL PENNSYLVANIA

CITY           SKY/WX    TMP DP  RH WIND       PRES   REMARKS
BRADFORD       CLOUDY    34  23  64 SE9       29.55R
DUBOIS         CLOUDY    37  20  50 S5        29.55S
CLEARFIELD     CLOUDY    38  20  48 SE6       29.60R
JOHNSTOWN      LGT SNOW  33  22  63 S8        29.57R
ALTOONA        CLOUDY    36  21  54 SE10      29.61R
STATE COLLEGE  CLOUDY    37  23  56 SE6       29.62R
WILLIAMSPORT   MOCLDY    38  25  59 E5        29.66R
SELINSGROVE    CLOUDY    39  26  59 S6        29.68R
FT INDIANTOWN  CLOUDY    37  28  68 NE2       29.69R
CAPITAL CITY   CLOUDY    40  28  62 E8        29.69R
HARRISBURG     CLOUDY    39  28  64 E10       29.69R
YORK           CLOUDY    39  29  67 E3        29.68R
$$

PAZ038>040-043-044-047-048-054-055-060>062-067>071-090000-
EASTERN PENNSYLVANIA

CITY           SKY/WX    TMP DP  RH WIND       PRES   REMARKS
SCRANTON       CLOUDY    37  18  46 SE9G17    29.66R
MOUNT POCONO   CLOUDY    30  15  53 SE8       29.64S
ALLENTOWN      CLOUDY    38  21  50 E7        29.72R
QUAKERTOWN*    CLOUDY    37  25  60 SE5       29.72R
READING        CLOUDY    39  25  57 CALM      29.71R
LANCASTER      CLOUDY    36  29  75 SE6       29.70R
COATESVILLE    CLOUDY    37  28  70 VRB5      29.72R
POTTSTOWN      CLOUDY    38  26  62 CALM      29.73R
BLUE BELL        N/A     36  25  64 E5        29.72R
DOYLESTOWN     CLOUDY    35  22  58 CALM      29.72R
WILLOW GROVE   NOT AVBL
NORTH PHILA    CLOUDY    38  23  55 SE12      29.76R
PHILADELPHIA   CLOUDY    39  25  57 E10       29.75R
$$



USA.gov is the U.S. government's official web portal to all federal, state and local government web resources and services.